Theta_e
343 342 341 339 335 326 328 332 329 326 328 330 330 330 331 330 330 331 333 333 336 335 334 335 332 331 330 330 329 329 328 329 331
341 341 341 337 331 327 325 326 328 323 327 329 329 330 330 332 329 329 331 332 334 334 333 335 332 331 329 330 329 329 328 328 328
340 340 340 337 334 331 327 323 327 322 324 329 329 330 331 330 331 328 330 330 332 331 332 333 333 331 330 330 329 328 328 328 328
339 339 339 338 337 333 328 325 325 322 321 328 329 330 330 330 330 328 329 331 332 331 331 331 330 330 330 330 329 329 328 328 328
336 339 338 338 338 335 330 326 325 321 320 323 329 330 330 331 329 329 328 329 332 331 331 331 330 328 328 329 328 327 328 327 327
337 339 339 338 336 335 333 329 325 321 320 323 329 330 329 330 330 330 327 330 331 330 329 329 328 324 323 324 323 322 323 324 324
337 339 339 337 335 334 333 331 325 322 319 320 329 330 330 330 330 330 325 330 332 329 325 324 322 322 321 322 321 321 320 320 320
338 338 340 337 336 333 334 332 325 323 319 319 327 329 329 329 330 330 326 327 331 329 323 322 321 321 321 321 321 320 320 321 320
340 338 338 340 336 333 331 329 325 325 328 322 324 328 328 329 330 330 328 324 331 329 323 321 321 321 321 321 321 321 321 321 322
339 339 340 339 338 334 330 327 327 325 330 328 325 326 327 328 330 330 330 323 324 326 326 323 322 322 322 322 322 322 322 322 322
341 339 340 339 338 337 332 329 329 325 330 330 327 326 326 327 328 329 330 328 322 323 325 327 325 325 327 328 328 327 327 328 328
342 341 340 339 338 337 333 332 331 331 330 330 328 326 326 326 327 328 328 329 328 323 323 325 331 331 331 332 332 333 333 331 330
340 341 340 340 338 337 334 333 331 332 330 330 329 327 327 326 326 327 327 328 328 328 326 322 323 328 332 333 333 332 331 330 329
340 340 340 340 339 337 336 337 332 330 329 330 329 328 328 327 326 326 326 327 327 329 329 328 328 325 324 326 331 331 331 329 329
341 340 340 340 339 338 336 335 331 331 329 328 328 328 328 327 327 327 326 326 327 328 329 329 329 329 328 326 324 325 326 328 329
340 340 340 340 339 338 337 335 332 330 330 326 327 328 327 327 327 328 328 328 328 328 329 329 328 328 328 328 327 326 325 325 328
334 338 340 340 339 338 337 336 332 329 328 326 326 323 326 327 327 327 328 328 329 329 329 329 329 328 328 328 328 327 327 325 327
332 335 337 339 339 338 337 336 333 328 327 326 326 324 324 324 327 328 328 328 329 329 329 329 329 328 328 329 328 327 327 326 326
313 332 335 336 338 338 337 336 334 332 326 325 325 326 326 324 324 326 327 328 328 329 329 329 329 328 328 328 328 327 326 327 326
315 318 330 333 335 335 337 336 334 332 329 327 325 325 326 327 324 325 325 327 328 328 328 329 328 327 326 327 327 327 326 326 326
Wind_Speed
11 13 14 12 11 11 13 13 13 14 17 15 11 11 10 11 11 10 12 11 13 14 12 12 14 13 14 15 14 16 16 16 18
8 11 12 12 11 11 11 12 12 14 16 15 10 7 7 11 10 8 11 11 10 10 10 12 12 12 12 13 13 14 15 16 16
8 10 11 11 11 10 10 11 12 13 16 14 9 9 12 10 8 8 10 7 8 9 10 10 10 10 11 11 12 12 13 13 14
10 10 11 10 10 9 9 10 10 12 14 14 12 10 9 7 5 8 10 9 8 7 7 7 8 8 9 10 10 10 11 12 12
12 12 13 12 10 9 8 9 9 10 12 15 13 12 12 10 6 5 7 6 5 5 6 5 6 6 6 7 7 8 8 10 10
13 14 14 13 11 10 8 10 9 10 12 15 15 13 11 7 9 5 6 8 6 5 5 3 3 3 3 4 5 5 6 7 8
13 16 16 16 13 13 12 10 10 10 12 15 16 13 9 8 9 5 7 10 7 6 5 4 3 3 2 2 2 3 4 5 6
16 18 17 17 16 17 16 13 13 11 12 14 15 12 8 11 9 7 7 9 9 7 6 5 4 3 2 1 0 1 2 3 4
22 22 23 21 20 19 19 17 15 14 12 11 16 13 8 14 11 9 7 10 10 9 7 6 5 4 4 3 3 3 2 2 3
26 26 26 24 22 21 21 19 18 18 17 14 12 13 9 14 14 11 8 11 11 10 9 8 7 7 6 6 6 5 5 5 5
27 30 28 27 25 24 23 21 19 20 20 19 20 15 14 15 14 13 12 11 13 13 12 11 11 10 9 8 8 9 8 9 9
30 30 31 30 28 25 25 23 21 20 20 20 20 20 20 17 17 15 14 14 13 14 14 13 13 12 11 10 10 13 14 12 11
35 33 33 32 31 29 28 28 28 27 26 24 23 22 21 21 20 18 18 16 15 14 15 16 15 15 14 14 13 12 13 12 12
35 36 35 34 33 33 31 30 32 29 25 26 24 23 23 22 22 24 22 20 19 18 15 14 14 16 17 17 15 14 14 13 14
35 36 38 36 37 36 33 30 32 31 28 25 27 25 23 24 24 24 25 24 23 21 19 17 17 17 16 18 18 17 15 14 15
35 36 38 39 37 36 34 30 33 30 28 23 22 25 25 25 27 26 26 25 27 24 23 23 21 21 19 18 17 17 17 16 15
33 37 35 37 38 33 35 32 27 30 31 19 6 3 14 27 30 29 29 30 28 28 27 26 24 22 22 21 18 18 18 18 17
33 35 36 34 35 33 35 34 30 26 32 34 13 2 5 4 24 32 33 33 32 32 29 30 28 24 24 23 23 21 21 19 19
41 34 37 37 36 33 34 35 33 29 25 30 34 22 7 4 2 21 34 37 36 34 32 30 29 27 27 26 27 24 23 21 20
35 38 35 39 36 36 37 34 34 36 29 31 29 29 20 12 3 3 6 28 36 38 34 32 30 29 30 29 28 27 26 24 22
Wind_Direction
132 133 133 127 122 118 117 117 116 114 122 121 109 93 90 112 111 106 112 92 85 82 82 89 80 75 74 72 68 66 62 59 56
144 146 146 134 128 127 124 123 122 122 132 131 119 90 99 120 120 101 103 103 95 91 93 80 83 79 77 72 68 66 60 60 59
164 161 158 146 137 133 132 133 134 131 141 140 129 85 120 122 126 111 110 125 103 97 102 91 86 81 78 75 71 67 64 63 59
181 171 170 160 150 146 144 144 146 142 146 150 138 112 129 127 126 134 134 109 110 103 103 96 86 87 84 78 74 71 67 63 63
191 181 177 172 171 164 163 161 158 156 153 157 147 127 129 154 155 133 144 124 123 112 102 95 90 88 86 83 77 71 71 67 63
199 192 187 186 185 181 182 177 174 167 161 160 155 146 146 157 185 170 162 156 142 144 143 128 103 85 79 77 75 70 65 63 58
212 201 198 196 193 189 192 196 187 182 173 168 166 167 170 179 185 208 196 171 172 176 175 176 164 146 124 82 58 55 53 55 50
206 209 204 201 197 194 197 200 198 192 187 180 176 174 174 184 203 218 221 189 185 194 198 200 198 191 194 196 320 340 354 16 29
218 209 206 209 206 203 204 207 205 198 186 185 188 185 200 200 217 228 246 211 198 205 213 216 224 223 227 239 250 267 285 305 322
215 215 212 211 213 212 212 213 210 208 207 205 202 201 209 203 216 222 238 229 221 217 221 227 234 242 246 253 263 271 280 285 291
215 214 216 218 217 220 218 215 213 212 213 223 217 215 215 212 222 220 230 231 233 230 229 232 237 242 249 259 269 279 285 292 292
219 218 220 222 220 218 219 219 218 215 213 223 222 225 215 217 225 225 230 233 240 238 240 241 242 248 250 257 272 281 284 286 285
226 224 224 222 223 217 218 220 219 223 224 218 223 223 220 226 228 233 235 237 243 241 245 246 249 252 256 259 264 275 281 285 289
228 228 226 223 220 217 220 226 220 217 219 219 224 224 223 224 226 230 236 240 241 241 249 248 254 253 257 260 262 267 274 279 286
229 227 227 222 217 219 221 226 215 220 220 222 225 227 229 228 229 230 231 238 242 241 246 248 248 249 256 260 263 269 271 275 280
233 230 228 224 214 215 219 222 215 217 221 220 227 228 233 236 232 233 236 235 236 241 248 253 255 254 255 259 260 264 267 267 266
241 232 224 219 219 219 219 219 214 216 214 208 186 242 241 238 232 234 234 238 239 241 246 248 254 256 255 256 260 260 264 261 257
243 240 231 222 218 220 220 218 212 207 210 212 190 176 224 195 229 232 233 238 238 240 244 247 250 254 257 258 260 261 263 262 256
244 244 239 232 224 221 220 216 218 213 202 211 214 220 189 190 263 229 235 236 237 237 240 242 244 247 252 258 262 261 260 260 261
245 244 246 243 234 234 224 220 217 217 214 207 216 222 226 224 160 231 229 235 239 241 240 241 245 247 254 259 261 261 258 257 257